Wetterdaten: Sonntag, 17.05.2020
Datum Zeit Temp. Auen Feucht Auen Luftdruck Regen Richtung Richtung Windben
17.05.2020 00:00 11,4 C 86 % 1018,9 hPa 0,0 mm W 270 3,2 km/h (1 Bft)
17.05.2020 00:05 11,4 C 86 % 1018,9 hPa 0,0 mm W 270 3,2 km/h (1 Bft)
17.05.2020 00:10 11,4 C 86 % 1018,8 hPa 0,0 mm W 270 1,6 km/h (1 Bft)
17.05.2020 00:15 11,3 C 86 % 1018,8 hPa 0,0 mm W 270 1,6 km/h (1 Bft)
17.05.2020 00:20 11,3 C 86 % 1018,9 hPa 0,0 mm N 0 0,0 km/h (0 Bft)
17.05.2020 00:25 11,3 C 86 % 1018,8 hPa 0,0 mm N 0 0,0 km/h (0 Bft)
17.05.2020 00:30 11,2 C 87 % 1018,7 hPa 0,0 mm W 270 1,6 km/h (1 Bft)
17.05.2020 00:35 11,2 C 87 % 1018,7 hPa 0,0 mm N 0 0,0 km/h (0 Bft)
17.05.2020 00:40 11,1 C 87 % 1018,7 hPa 0,0 mm N 0 0,0 km/h (0 Bft)
17.05.2020 00:45 11,0 C 87 % 1018,5 hPa 0,0 mm N 0 0,0 km/h (0 Bft)
17.05.2020 00:50 10,9 C 87 % 1018,5 hPa 0,0 mm W 270 1,6 km/h (1 Bft)
17.05.2020 00:55 10,9 C 87 % 1018,6 hPa 0,0 mm N 0 0,0 km/h (0 Bft)
17.05.2020 01:00 10,8 C 87 % 1018,5 hPa 0,0 mm N 0 0,0 km/h (0 Bft)
17.05.2020 01:05 10,8 C 87 % 1018,5 hPa 0,0 mm N 0 0,0 km/h (0 Bft)
17.05.2020 01:10 10,7 C 87 % 1018,6 hPa 0,0 mm N 0 0,0 km/h (0 Bft)
17.05.2020 01:15 10,7 C 87 % 1018,7 hPa 0,0 mm N 0 0,0 km/h (0 Bft)
17.05.2020 01:20 10,6 C 87 % 1018,7 hPa 0,0 mm N 0 0,0 km/h (0 Bft)
17.05.2020 01:25 10,6 C 88 % 1018,9 hPa 0,0 mm N 0 0,0 km/h (0 Bft)
17.05.2020 01:30 10,6 C 88 % 1019,0 hPa 0,0 mm W 270 3,2 km/h (1 Bft)
17.05.2020 01:35 10,5 C 88 % 1019,1 hPa 0,0 mm W 270 4,8 km/h (1 Bft)
17.05.2020 01:40 10,4 C 88 % 1019,1 hPa 0,0 mm W 270 1,6 km/h (1 Bft)
17.05.2020 01:45 10,4 C 88 % 1019,1 hPa 0,0 mm W 270 3,2 km/h (1 Bft)
17.05.2020 01:50 10,3 C 88 % 1019,1 hPa 0,0 mm W 270 3,2 km/h (1 Bft)
17.05.2020 01:55 10,2 C 88 % 1019,2 hPa 0,0 mm W 270 1,6 km/h (1 Bft)
17.05.2020 02:00 10,1 C 88 % 1019,4 hPa 0,0 mm W 270 3,2 km/h (1 Bft)
17.05.2020 02:05 10,1 C 88 % 1019,4 hPa 0,0 mm W 270 3,2 km/h (1 Bft)
17.05.2020 02:10 10,0 C 88 % 1019,3 hPa 0,0 mm W 270 4,8 km/h (1 Bft)
17.05.2020 02:15 10,0 C 88 % 1019,4 hPa 0,0 mm W 270 3,2 km/h (1 Bft)
17.05.2020 02:20 9,9 C 89 % 1019,5 hPa 0,0 mm W 270 4,8 km/h (1 Bft)
17.05.2020 02:25 9,9 C 89 % 1019,5 hPa 0,0 mm W 270 4,8 km/h (1 Bft)
17.05.2020 02:30 9,9 C 89 % 1019,4 hPa 0,0 mm W 270 4,8 km/h (1 Bft)
17.05.2020 02:35 9,9 C 89 % 1019,4 hPa 0,0 mm W 270 4,8 km/h (1 Bft)
17.05.2020 02:40 9,9 C 89 % 1019,3 hPa 0,0 mm W 270 3,2 km/h (1 Bft)
17.05.2020 02:45 9,9 C 89 % 1019,3 hPa 0,0 mm W 270 4,8 km/h (1 Bft)
17.05.2020 02:50 9,9 C 89 % 1019,3 hPa 0,0 mm W 270 6,4 km/h (2 Bft)
17.05.2020 02:55 9,9 C 89 % 1019,3 hPa 0,0 mm W 270 6,4 km/h (2 Bft)
17.05.2020 03:00 10,0 C 89 % 1019,3 hPa 0,0 mm W 270 6,4 km/h (2 Bft)
17.05.2020 03:05 10,0 C 90 % 1019,3 hPa 0,0 mm W 270 6,4 km/h (2 Bft)
17.05.2020 03:10 10,1 C 90 % 1019,2 hPa 0,0 mm W 270 4,8 km/h (1 Bft)
17.05.2020 03:15 10,1 C 90 % 1019,3 hPa 0,0 mm W 270 4,8 km/h (1 Bft)
17.05.2020 03:20 10,1 C 90 % 1019,3 hPa 0,0 mm W 270 3,2 km/h (1 Bft)
17.05.2020 03:25 10,1 C 90 % 1019,3 hPa 0,0 mm W 270 4,8 km/h (1 Bft)
17.05.2020 03:30 10,2 C 90 % 1019,2 hPa 0,0 mm W 270 4,8 km/h (1 Bft)
17.05.2020 03:35 10,2 C 90 % 1019,3 hPa 0,0 mm W 270 3,2 km/h (1 Bft)
17.05.2020 03:40 10,2 C 90 % 1019,2 hPa 0,0 mm N 0 0,0 km/h (0 Bft)
17.05.2020 03:45 10,2 C 90 % 1019,2 hPa 0,0 mm N 0 0,0 km/h (0 Bft)
17.05.2020 03:50 10,2 C 90 % 1019,1 hPa 0,0 mm N 0 0,0 km/h (0 Bft)
17.05.2020 03:55 10,2 C 90 % 1019,2 hPa 0,0 mm N 0 0,0 km/h (0 Bft)
17.05.2020 04:00 10,2 C 90 % 1019,2 hPa 0,0 mm N 0 0,0 km/h (0 Bft)
17.05.2020 04:05 10,2 C 90 % 1019,2 hPa 0,0 mm W 270 1,6 km/h (1 Bft)
17.05.2020 04:10 10,2 C 90 % 1019,1 hPa 0,0 mm N 0 0,0 km/h (0 Bft)
17.05.2020 04:15 10,2 C 90 % 1019,0 hPa 0,0 mm W 270 1,6 km/h (1 Bft)
17.05.2020 04:20 10,2 C 90 % 1019,1 hPa 0,0 mm N 0 0,0 km/h (0 Bft)
17.05.2020 04:25 10,2 C 90 % 1019,2 hPa 0,0 mm N 0 0,0 km/h (0 Bft)
17.05.2020 04:30 10,2 C 90 % 1019,1 hPa 0,0 mm N 0 0,0 km/h (0 Bft)
17.05.2020 04:35 10,2 C 90 % 1019,1 hPa 0,0 mm N 0 0,0 km/h (0 Bft)
17.05.2020 04:40 10,2 C 90 % 1019,1 hPa 0,0 mm N 0 0,0 km/h (0 Bft)
17.05.2020 04:45 10,2 C 90 % 1019,2 hPa 0,0 mm N 0 0,0 km/h (0 Bft)
17.05.2020 04:50 10,2 C 90 % 1019,1 hPa 0,0 mm N 0 0,0 km/h (0 Bft)
17.05.2020 04:55 10,2 C 90 % 1019,1 hPa 0,0 mm W 270 1,6 km/h (1 Bft)
17.05.2020 05:00 10,2 C 90 % 1019,0 hPa 0,0 mm W 270 1,6 km/h (1 Bft)
17.05.2020 05:05 10,2 C 90 % 1019,1 hPa 0,0 mm N 0 0,0 km/h (0 Bft)
17.05.2020 05:10 10,2 C 90 % 1019,1 hPa 0,0 mm N 0 0,0 km/h (0 Bft)
17.05.2020 05:15 10,2 C 91 % 1019,2 hPa 0,0 mm W 270 3,2 km/h (1 Bft)
17.05.2020 05:20 10,2 C 91 % 1019,3 hPa 0,0 mm W 270 3,2 km/h (1 Bft)
17.05.2020 05:25 10,3 C 91 % 1019,3 hPa 0,0 mm W 270 3,2 km/h (1 Bft)
17.05.2020 05:30 10,3 C 91 % 1019,3 hPa 0,0 mm W 270 4,8 km/h (1 Bft)
17.05.2020 05:35 10,3 C 91 % 1019,3 hPa 0,0 mm W 270 4,8 km/h (1 Bft)
17.05.2020 05:40 10,3 C 91 % 1019,3 hPa 0,0 mm W 270 4,8 km/h (1 Bft)
17.05.2020 05:45 10,3 C 91 % 1019,4 hPa 0,0 mm W 270 3,2 km/h (1 Bft)
17.05.2020 05:50 10,3 C 91 % 1019,4 hPa 0,0 mm W 270 4,8 km/h (1 Bft)
17.05.2020 05:55 10,3 C 91 % 1019,5 hPa 0,0 mm W 270 4,8 km/h (1 Bft)
17.05.2020 06:00 10,3 C 91 % 1019,5 hPa 0,0 mm W 270 4,8 km/h (1 Bft)
17.05.2020 06:05 10,3 C 90 % 1019,6 hPa 0,0 mm W 270 4,8 km/h (1 Bft)
17.05.2020 06:10 10,3 C 90 % 1019,6 hPa 0,0 mm W 270 4,8 km/h (1 Bft)
17.05.2020 06:15 10,3 C 90 % 1019,6 hPa 0,0 mm W 270 3,2 km/h (1 Bft)
17.05.2020 06:20 10,3 C 91 % 1019,7 hPa 0,0 mm W 270 1,6 km/h (1 Bft)
17.05.2020 06:25 10,3 C 91 % 1019,7 hPa 0,0 mm W 270 1,6 km/h (1 Bft)
17.05.2020 06:30 10,3 C 91 % 1019,8 hPa 0,0 mm W 270 3,2 km/h (1 Bft)
17.05.2020 06:35 10,3 C 91 % 1020,0 hPa 0,0 mm W 270 1,6 km/h (1 Bft)
17.05.2020 06:40 10,3 C 91 % 1020,0 hPa 0,0 mm W 270 3,2 km/h (1 Bft)
17.05.2020 06:45 10,2 C 91 % 1020,1 hPa 0,0 mm W 270 3,2 km/h (1 Bft)
17.05.2020 06:50 10,2 C 91 % 1020,2 hPa 0,0 mm W 270 1,6 km/h (1 Bft)
17.05.2020 06:55 10,2 C 91 % 1020,2 hPa 0,0 mm W 270 1,6 km/h (1 Bft)
17.05.2020 07:00 10,4 C 91 % 1020,2 hPa 0,0 mm N 0 0,0 km/h (0 Bft)
17.05.2020 07:05 10,7 C 91 % 1020,2 hPa 0,0 mm N 0 0,0 km/h (0 Bft)
17.05.2020 07:10 10,9 C 91 % 1020,2 hPa 0,0 mm N 0 0,0 km/h (0 Bft)
17.05.2020 07:15 11,1 C 90 % 1020,3 hPa 0,0 mm W 270 3,2 km/h (1 Bft)
17.05.2020 07:20 11,3 C 90 % 1020,3 hPa 0,0 mm W 270 3,2 km/h (1 Bft)
17.05.2020 07:25 11,3 C 89 % 1020,2 hPa 0,0 mm W 270 3,2 km/h (1 Bft)
17.05.2020 07:30 11,4 C 89 % 1020,4 hPa 0,0 mm W 270 3,2 km/h (1 Bft)
17.05.2020 07:35 11,6 C 88 % 1020,3 hPa 0,0 mm W 270 3,2 km/h (1 Bft)
17.05.2020 07:40 11,7 C 88 % 1020,4 hPa 0,0 mm W 270 3,2 km/h (1 Bft)
17.05.2020 07:45 11,9 C 87 % 1020,4 hPa 0,0 mm W 270 4,8 km/h (1 Bft)
17.05.2020 07:50 12,0 C 87 % 1020,5 hPa 0,0 mm W 270 1,6 km/h (1 Bft)
17.05.2020 07:55 12,5 C 86 % 1020,5 hPa 0,0 mm W 270 4,8 km/h (1 Bft)
17.05.2020 08:00 13,0 C 86 % 1020,6 hPa 0,0 mm W 270 4,8 km/h (1 Bft)
17.05.2020 08:05 13,3 C 83 % 1020,6 hPa 0,0 mm W 270 4,8 km/h (1 Bft)
17.05.2020 08:10 13,5 C 83 % 1020,6 hPa 0,0 mm W 270 1,6 km/h (1 Bft)
17.05.2020 08:15 14,6 C 79 % 1020,6 hPa 0,0 mm W 270 3,2 km/h (1 Bft)
17.05.2020 08:20 15,2 C 77 % 1020,6 hPa 0,0 mm W 270 3,2 km/h (1 Bft)
17.05.2020 08:25 15,1 C 73 % 1020,6 hPa 0,0 mm W 270 4,8 km/h (1 Bft)
17.05.2020 08:30 14,9 C 75 % 1020,5 hPa 0,0 mm W 270 4,8 km/h (1 Bft)
17.05.2020 08:35 15,6 C 73 % 1020,6 hPa 0,0 mm W 270 6,4 km/h (2 Bft)
17.05.2020 08:40 15,7 C 72 % 1020,7 hPa 0,0 mm W 270 6,4 km/h (2 Bft)
17.05.2020 08:45 15,8 C 72 % 1020,7 hPa 0,0 mm W 270 6,4 km/h (2 Bft)
17.05.2020 08:50 15,8 C 70 % 1020,8 hPa 0,0 mm W 270 6,4 km/h (2 Bft)
17.05.2020 08:55 16,3 C 69 % 1020,8 hPa 0,0 mm W 270 8,0 km/h (2 Bft)
17.05.2020 09:00 16,8 C 66 % 1020,9 hPa 0,0 mm W 270 8,0 km/h (2 Bft)
17.05.2020 09:05 16,9 C 66 % 1020,9 hPa 0,0 mm W 270 12,9 km/h (3 Bft)
17.05.2020 09:10 17,2 C 63 % 1020,9 hPa 0,0 mm W 270 12,9 km/h (3 Bft)
17.05.2020 09:15 17,7 C 63 % 1021,0 hPa 0,0 mm W 270 11,3 km/h (2 Bft)
17.05.2020 09:20 17,5 C 58 % 1021,0 hPa 0,0 mm W 270 11,3 km/h (2 Bft)
17.05.2020 09:25 17,3 C 60 % 1021,0 hPa 0,0 mm W 270 12,9 km/h (3 Bft)
17.05.2020 09:30 17,5 C 60 % 1021,0 hPa 0,0 mm W 270 11,3 km/h (2 Bft)
17.05.2020 09:35 17,8 C 58 % 1021,0 hPa 0,0 mm W 270 12,9 km/h (3 Bft)
17.05.2020 09:40 17,9 C 57 % 1021,1 hPa 0,0 mm W 270 11,3 km/h (2 Bft)
17.05.2020 09:45 17,8 C 55 % 1021,1 hPa 0,0 mm W 270 14,5 km/h (3 Bft)
17.05.2020 09:50 17,6 C 56 % 1021,2 hPa 0,0 mm W 270 14,5 km/h (3 Bft)
17.05.2020 09:55 17,5 C 55 % 1021,2 hPa 0,0 mm W 270 9,7 km/h (2 Bft)
17.05.2020 10:00 17,4 C 54 % 1021,3 hPa 0,0 mm W 270 12,9 km/h (3 Bft)
17.05.2020 10:05 17,1 C 57 % 1021,3 hPa 0,0 mm W 270 11,3 km/h (2 Bft)
17.05.2020 10:10 17,0 C 59 % 1021,3 hPa 0,0 mm W-NW 292 4,8 km/h (1 Bft)
17.05.2020 10:15 17,9 C 57 % 1021,3 hPa 0,0 mm W 270 12,9 km/h (3 Bft)
17.05.2020 10:20 17,4 C 59 % 1021,3 hPa 0,0 mm W 270 9,7 km/h (2 Bft)
17.05.2020 10:25 17,1 C 57 % 1021,5 hPa 0,0 mm W 270 6,4 km/h (2 Bft)
17.05.2020 10:30 17,5 C 64 % 1021,4 hPa 0,0 mm N-NO 22 6,4 km/h (2 Bft)
17.05.2020 10:35 18,2 C 61 % 1021,5 hPa 0,0 mm W-NW 292 8,0 km/h (2 Bft)
17.05.2020 10:40 18,2 C 55 % 1021,6 hPa 0,0 mm W 270 16,1 km/h (3 Bft)
17.05.2020 10:45 18,1 C 57 % 1021,5 hPa 0,0 mm W 270 14,5 km/h (3 Bft)
17.05.2020 10:50 18,8 C 59 % 1021,5 hPa 0,0 mm W 270 8,0 km/h (2 Bft)
17.05.2020 10:55 18,7 C 53 % 1021,6 hPa 0,0 mm W 270 11,3 km/h (2 Bft)
17.05.2020 11:00 19,4 C 56 % 1021,6 hPa 0,0 mm W 270 9,7 km/h (2 Bft)
17.05.2020 11:05 18,5 C 54 % 1021,6 hPa 0,0 mm W 270 12,9 km/h (3 Bft)
17.05.2020 11:10 18,3 C 56 % 1021,6 hPa 0,0 mm W 270 16,1 km/h (3 Bft)
17.05.2020 11:15 18,6 C 51 % 1021,6 hPa 0,0 mm W 270 17,7 km/h (3 Bft)
17.05.2020 11:20 18,8 C 52 % 1021,6 hPa 0,0 mm W 270 14,5 km/h (3 Bft)
17.05.2020 11:25 18,3 C 56 % 1021,6 hPa 0,0 mm SW 225 8,0 km/h (2 Bft)
17.05.2020 11:30 18,9 C 54 % 1021,6 hPa 0,0 mm W 270 8,0 km/h (2 Bft)
17.05.2020 11:35 19,3 C 49 % 1021,5 hPa 0,0 mm W 270 11,3 km/h (2 Bft)
17.05.2020 11:40 19,3 C 52 % 1021,6 hPa 0,0 mm W 270 14,5 km/h (3 Bft)
17.05.2020 11:45 20,0 C 51 % 1021,6 hPa 0,0 mm W 270 11,3 km/h (2 Bft)
17.05.2020 11:50 19,9 C 48 % 1021,6 hPa 0,0 mm W 270 11,3 km/h (2 Bft)
17.05.2020 11:55 19,7 C 45 % 1021,6 hPa 0,0 mm W 270 14,5 km/h (3 Bft)
17.05.2020 12:00 19,2 C 43 % 1021,6 hPa 0,0 mm W 270 9,7 km/h (2 Bft)
17.05.2020 12:05 18,3 C 51 % 1021,5 hPa 0,0 mm SO 135 12,9 km/h (3 Bft)
17.05.2020 12:10 19,2 C 45 % 1021,6 hPa 0,0 mm W 270 17,7 km/h (3 Bft)
17.05.2020 12:15 19,4 C 44 % 1021,6 hPa 0,0 mm W 270 12,9 km/h (3 Bft)
17.05.2020 12:20 19,8 C 46 % 1021,5 hPa 0,0 mm W 270 11,3 km/h (2 Bft)
17.05.2020 12:25 20,0 C 40 % 1021,5 hPa 0,0 mm W 270 16,1 km/h (3 Bft)
17.05.2020 12:30 19,9 C 39 % 1021,5 hPa 0,0 mm W 270 12,9 km/h (3 Bft)
17.05.2020 12:35 19,5 C 43 % 1021,4 hPa 0,0 mm W 270 8,0 km/h (2 Bft)
17.05.2020 12:40 19,7 C 40 % 1021,4 hPa 0,0 mm W 270 11,3 km/h (2 Bft)
17.05.2020 12:45 19,3 C 41 % 1021,4 hPa 0,0 mm W 270 8,0 km/h (2 Bft)
17.05.2020 12:50 20,3 C 37 % 1021,4 hPa 0,0 mm W 270 12,9 km/h (3 Bft)
17.05.2020 12:55 20,1 C 37 % 1021,4 hPa 0,0 mm W-SW 247 11,3 km/h (2 Bft)
17.05.2020 13:00 18,8 C 41 % 1021,3 hPa 0,0 mm S-SO 157 6,4 km/h (2 Bft)
17.05.2020 13:05 19,7 C 44 % 1021,4 hPa 0,0 mm W-NW 292 8,0 km/h (2 Bft)
17.05.2020 13:10 20,2 C 37 % 1021,4 hPa 0,0 mm W 270 14,5 km/h (3 Bft)
17.05.2020 13:15 20,1 C 36 % 1021,4 hPa 0,0 mm W 270 12,9 km/h (3 Bft)
17.05.2020 13:20 20,5 C 41 % 1021,3 hPa 0,0 mm W 270 11,3 km/h (2 Bft)
17.05.2020 13:25 20,2 C 35 % 1021,3 hPa 0,0 mm W 270 9,7 km/h (2 Bft)
17.05.2020 13:30 19,2 C 38 % 1021,2 hPa 0,0 mm W-NW 292 6,4 km/h (2 Bft)
17.05.2020 13:35 19,5 C 39 % 1021,2 hPa 0,0 mm W-SW 247 8,0 km/h (2 Bft)
17.05.2020 13:40 20,1 C 38 % 1021,2 hPa 0,0 mm W 270 14,5 km/h (3 Bft)
17.05.2020 13:45 20,2 C 43 % 1021,1 hPa 0,0 mm W 270 9,7 km/h (2 Bft)
17.05.2020 13:50 20,1 C 43 % 1021,1 hPa 0,0 mm W 270 9,7 km/h (2 Bft)
17.05.2020 13:55 20,3 C 41 % 1021,2 hPa 0,0 mm W 270 11,3 km/h (2 Bft)
17.05.2020 14:00 19,7 C 42 % 1021,1 hPa 0,0 mm O-SO 112 6,4 km/h (2 Bft)
17.05.2020 14:05 19,7 C 47 % 1021,1 hPa 0,0 mm O-SO 112 8,0 km/h (2 Bft)
17.05.2020 14:10 20,6 C 41 % 1021,0 hPa 0,0 mm W 270 12,9 km/h (3 Bft)
17.05.2020 14:15 20,8 C 39 % 1021,0 hPa 0,0 mm W 270 14,5 km/h (3 Bft)
17.05.2020 14:20 20,4 C 39 % 1021,0 hPa 0,0 mm W 270 12,9 km/h (3 Bft)
17.05.2020 14:25 19,7 C 40 % 1021,0 hPa 0,0 mm N-NO 22 11,3 km/h (2 Bft)
17.05.2020 14:30 19,7 C 39 % 1021,0 hPa 0,0 mm W 270 8,0 km/h (2 Bft)
17.05.2020 14:35 19,6 C 44 % 1020,9 hPa 0,0 mm NO 45 8,0 km/h (2 Bft)
17.05.2020 14:40 20,7 C 40 % 1020,9 hPa 0,0 mm W 270 12,9 km/h (3 Bft)
17.05.2020 14:45 20,9 C 40 % 1020,9 hPa 0,0 mm W 270 16,1 km/h (3 Bft)
17.05.2020 14:50 20,5 C 38 % 1020,9 hPa 0,0 mm W 270 14,5 km/h (3 Bft)
17.05.2020 14:55 20,8 C 41 % 1020,9 hPa 0,0 mm W 270 14,5 km/h (3 Bft)
17.05.2020 15:00 20,8 C 41 % 1020,8 hPa 0,0 mm W 270 14,5 km/h (3 Bft)
17.05.2020 15:05 20,4 C 41 % 1020,9 hPa 0,0 mm W 270 12,9 km/h (3 Bft)
17.05.2020 15:10 20,3 C 40 % 1020,9 hPa 0,0 mm W 270 11,3 km/h (2 Bft)
17.05.2020 15:15 21,0 C 42 % 1020,8 hPa 0,0 mm W 270 11,3 km/h (2 Bft)
17.05.2020 15:20 20,5 C 41 % 1020,8 hPa 0,0 mm W 270 9,7 km/h (2 Bft)
17.05.2020 15:25 20,6 C 41 % 1020,8 hPa 0,0 mm W 270 14,5 km/h (3 Bft)
17.05.2020 15:30 20,8 C 41 % 1020,8 hPa 0,0 mm W 270 14,5 km/h (3 Bft)
17.05.2020 15:35 21,3 C 40 % 1020,8 hPa 0,0 mm W 270 9,7 km/h (2 Bft)
17.05.2020 15:40 21,6 C 39 % 1020,8 hPa 0,0 mm W 270 11,3 km/h (2 Bft)
17.05.2020 15:45 20,8 C 39 % 1020,7 hPa 0,0 mm W 270 12,9 km/h (3 Bft)
17.05.2020 15:50 20,9 C 40 % 1020,8 hPa 0,0 mm W 270 12,9 km/h (3 Bft)
17.05.2020 15:55 20,9 C 37 % 1020,8 hPa 0,0 mm W 270 19,3 km/h (3 Bft)
17.05.2020 16:00 21,1 C 39 % 1020,9 hPa 0,0 mm W 270 14,5 km/h (3 Bft)
17.05.2020 16:05 21,0 C 40 % 1020,8 hPa 0,0 mm W-NW 292 9,7 km/h (2 Bft)
17.05.2020 16:10 20,8 C 40 % 1020,8 hPa 0,0 mm W 270 17,7 km/h (3 Bft)
17.05.2020 16:15 21,0 C 37 % 1020,7 hPa 0,0 mm W 270 12,9 km/h (3 Bft)
17.05.2020 16:20 20,6 C 40 % 1020,7 hPa 0,0 mm W 270 14,5 km/h (3 Bft)
17.05.2020 16:25 21,3 C 38 % 1020,7 hPa 0,0 mm W 270 11,3 km/h (2 Bft)
17.05.2020 16:30 21,1 C 40 % 1020,6 hPa 0,0 mm W 270 8,0 km/h (2 Bft)
17.05.2020 16:35 20,3 C 40 % 1020,6 hPa 0,0 mm W 270 8,0 km/h (2 Bft)
17.05.2020 16:40 20,7 C 41 % 1020,5 hPa 0,0 mm W 270 12,9 km/h (3 Bft)
17.05.2020 16:45 21,1 C 39 % 1020,5 hPa 0,0 mm W 270 14,5 km/h (3 Bft)
17.05.2020 16:50 20,5 C 39 % 1020,5 hPa 0,0 mm W 270 12,9 km/h (3 Bft)
17.05.2020 16:55 20,6 C 38 % 1020,4 hPa 0,0 mm W 270 16,1 km/h (3 Bft)
17.05.2020 17:00 20,3 C 38 % 1020,5 hPa 0,0 mm W-SW 247 9,7 km/h (2 Bft)
17.05.2020 17:05 20,9 C 39 % 1020,5 hPa 0,0 mm W-NW 292 12,9 km/h (3 Bft)
17.05.2020 17:10 20,9 C 39 % 1020,5 hPa 0,0 mm W 270 11,3 km/h (2 Bft)
17.05.2020 17:15 21,0 C 37 % 1020,6 hPa 0,0 mm W 270 11,3 km/h (2 Bft)
17.05.2020 17:20 19,6 C 44 % 1020,5 hPa 0,0 mm W 270 6,4 km/h (2 Bft)
17.05.2020 17:25 19,8 C 41 % 1020,5 hPa 0,0 mm S 180 8,0 km/h (2 Bft)
17.05.2020 17:30 20,7 C 39 % 1020,5 hPa 0,0 mm W 270 11,3 km/h (2 Bft)
17.05.2020 17:35 20,8 C 39 % 1020,4 hPa 0,0 mm W 270 11,3 km/h (2 Bft)
17.05.2020 17:40 20,4 C 39 % 1020,4 hPa 0,0 mm W 270 6,4 km/h (2 Bft)
17.05.2020 17:45 20,2 C 38 % 1020,4 hPa 0,0 mm W 270 6,4 km/h (2 Bft)
17.05.2020 17:50 20,2 C 38 % 1020,3 hPa 0,0 mm W 270 9,7 km/h (2 Bft)
17.05.2020 17:55 20,1 C 39 % 1020,4 hPa 0,0 mm NW 315 6,4 km/h (2 Bft)
17.05.2020 18:00 20,4 C 38 % 1020,4 hPa 0,0 mm W 270 9,7 km/h (2 Bft)
17.05.2020 18:05 19,9 C 40 % 1020,4 hPa 0,0 mm W 270 6,4 km/h (2 Bft)
17.05.2020 18:10 20,1 C 41 % 1020,4 hPa 0,0 mm W 270 6,4 km/h (2 Bft)
17.05.2020 18:15 20,7 C 39 % 1020,4 hPa 0,0 mm W 270 12,9 km/h (3 Bft)
17.05.2020 18:20 20,6 C 40 % 1020,4 hPa 0,0 mm W 270 11,3 km/h (2 Bft)
17.05.2020 18:25 20,1 C 41 % 1020,4 hPa 0,0 mm W 270 8,0 km/h (2 Bft)
17.05.2020 18:30 19,9 C 41 % 1020,4 hPa 0,0 mm W 270 11,3 km/h (2 Bft)
17.05.2020 18:35 20,3 C 40 % 1020,4 hPa 0,0 mm W 270 11,3 km/h (2 Bft)
17.05.2020 18:40 20,2 C 40 % 1020,4 hPa 0,0 mm W 270 12,9 km/h (3 Bft)
17.05.2020 18:45 19,8 C 40 % 1020,5 hPa 0,0 mm W 270 8,0 km/h (2 Bft)
17.05.2020 18:50 19,4 C 40 % 1020,6 hPa 0,0 mm W 270 4,8 km/h (1 Bft)
17.05.2020 18:55 18,9 C 45 % 1020,6 hPa 0,0 mm W 270 3,2 km/h (1 Bft)
17.05.2020 19:00 18,6 C 42 % 1020,6 hPa 0,0 mm W 270 1,6 km/h (1 Bft)
17.05.2020 19:05 18,7 C 44 % 1020,6 hPa 0,0 mm W-NW 292 4,8 km/h (1 Bft)
17.05.2020 19:10 18,5 C 44 % 1020,6 hPa 0,0 mm NO 45 8,0 km/h (2 Bft)
17.05.2020 19:15 18,4 C 45 % 1020,6 hPa 0,0 mm N-NO 22 6,4 km/h (2 Bft)
17.05.2020 19:20 18,3 C 44 % 1020,6 hPa 0,0 mm N-NO 22 4,8 km/h (1 Bft)
17.05.2020 19:25 18,0 C 49 % 1020,7 hPa 0,0 mm N-NO 22 4,8 km/h (1 Bft)
17.05.2020 19:30 17,7 C 47 % 1020,7 hPa 0,0 mm O-NO 67 3,2 km/h (1 Bft)
17.05.2020 19:35 17,6 C 51 % 1020,7 hPa 0,0 mm O-NO 67 3,2 km/h (1 Bft)
17.05.2020 19:40 17,3 C 54 % 1020,7 hPa 0,0 mm N 0 0,0 km/h (0 Bft)
17.05.2020 19:45 16,9 C 54 % 1020,7 hPa 0,0 mm O-NO 67 1,6 km/h (1 Bft)
17.05.2020 19:50 17,1 C 55 % 1020,7 hPa 0,0 mm O-NO 67 3,2 km/h (1 Bft)
17.05.2020 19:55 16,7 C 58 % 1020,8 hPa 0,0 mm N 0 0,0 km/h (0 Bft)
17.05.2020 20:00 16,5 C 59 % 1020,8 hPa 0,0 mm O-NO 67 3,2 km/h (1 Bft)
17.05.2020 20:05 16,4 C 58 % 1020,8 hPa 0,0 mm N-NW 337 3,2 km/h (1 Bft)
17.05.2020 20:10 16,4 C 58 % 1020,9 hPa 0,0 mm N-NW 337 1,6 km/h (1 Bft)
17.05.2020 20:15 16,4 C 58 % 1020,9 hPa 0,0 mm N 0 0,0 km/h (0 Bft)
17.05.2020 20:20 16,3 C 58 % 1020,9 hPa 0,0 mm N 0 0,0 km/h (0 Bft)
17.05.2020 20:25 16,1 C 60 % 1021,0 hPa 0,0 mm N 0 0,0 km/h (0 Bft)
17.05.2020 20:30 15,9 C 61 % 1021,0 hPa 0,0 mm N 0 0,0 km/h (0 Bft)
17.05.2020 20:35 15,6 C 62 % 1021,1 hPa 0,0 mm N 0 0,0 km/h (0 Bft)
17.05.2020 20:40 15,4 C 63 % 1021,1 hPa 0,0 mm N 0 0,0 km/h (0 Bft)
17.05.2020 20:45 15,1 C 63 % 1021,2 hPa 0,0 mm N 0 0,0 km/h (0 Bft)
17.05.2020 20:50 14,8 C 63 % 1021,2 hPa 0,0 mm N-NW 337 1,6 km/h (1 Bft)
17.05.2020 20:55 14,4 C 65 % 1021,2 hPa 0,0 mm N 0 0,0 km/h (0 Bft)
17.05.2020 21:00 14,1 C 66 % 1021,4 hPa 0,0 mm N-NW 337 4,8 km/h (1 Bft)
17.05.2020 21:05 13,8 C 67 % 1021,5 hPa 0,0 mm N 0 0,0 km/h (0 Bft)
17.05.2020 21:10 13,4 C 68 % 1021,6 hPa 0,0 mm N-NW 337 1,6 km/h (1 Bft)
17.05.2020 21:15 13,2 C 69 % 1021,6 hPa 0,0 mm N-NW 337 1,6 km/h (1 Bft)
17.05.2020 21:20 13,1 C 69 % 1021,7 hPa 0,0 mm N-NW 337 1,6 km/h (1 Bft)
17.05.2020 21:25 12,8 C 70 % 1021,8 hPa 0,0 mm N-NW 337 4,8 km/h (1 Bft)
17.05.2020 21:30 12,6 C 70 % 1021,8 hPa 0,0 mm N-NW 337 4,8 km/h (1 Bft)
17.05.2020 21:35 12,5 C 71 % 1021,9 hPa 0,0 mm NW 315 6,4 km/h (2 Bft)
17.05.2020 21:40 12,3 C 72 % 1021,9 hPa 0,0 mm NW 315 3,2 km/h (1 Bft)
17.05.2020 21:45 12,2 C 72 % 1022,0 hPa 0,0 mm NW 315 1,6 km/h (1 Bft)
17.05.2020 21:50 12,1 C 72 % 1022,0 hPa 0,0 mm N 0 0,0 km/h (0 Bft)
17.05.2020 21:55 11,9 C 73 % 1022,1 hPa 0,0 mm NW 315 4,8 km/h (1 Bft)
17.05.2020 22:00 11,8 C 73 % 1022,1 hPa 0,0 mm NW 315 1,6 km/h (1 Bft)
17.05.2020 22:05 11,6 C 73 % 1022,1 hPa 0,0 mm N 0 0,0 km/h (0 Bft)
17.05.2020 22:10 11,5 C 73 % 1022,2 hPa 0,0 mm N 0 0,0 km/h (0 Bft)
17.05.2020 22:15 11,3 C 74 % 1022,2 hPa 0,0 mm N 0 0,0 km/h (0 Bft)
17.05.2020 22:20 11,2 C 74 % 1022,2 hPa 0,0 mm NW 315 3,2 km/h (1 Bft)
17.05.2020 22:25 10,9 C 75 % 1022,2 hPa 0,0 mm NW 315 1,6 km/h (1 Bft)
17.05.2020 22:30 10,7 C 75 % 1022,2 hPa 0,0 mm NW 315 4,8 km/h (1 Bft)
17.05.2020 22:35 10,6 C 76 % 1022,2 hPa 0,0 mm NW 315 3,2 km/h (1 Bft)
17.05.2020 22:40 10,4 C 77 % 1022,4 hPa 0,0 mm NW 315 3,2 km/h (1 Bft)
17.05.2020 22:45 10,2 C 77 % 1022,4 hPa 0,0 mm N 0 0,0 km/h (0 Bft)
17.05.2020 22:50 10,1 C 78 % 1022,4 hPa 0,0 mm NW 315 3,2 km/h (1 Bft)
17.05.2020 22:55 10,0 C 78 % 1022,5 hPa 0,0 mm NW 315 1,6 km/h (1 Bft)
17.05.2020 23:00 9,9 C 79 % 1022,4 hPa 0,0 mm NW 315 1,6 km/h (1 Bft)
17.05.2020 23:05 9,8 C 79 % 1022,4 hPa 0,0 mm NW 315 1,6 km/h (1 Bft)
17.05.2020 23:10 9,6 C 79 % 1022,4 hPa 0,0 mm NW 315 1,6 km/h (1 Bft)
17.05.2020 23:15 9,5 C 79 % 1022,4 hPa 0,0 mm NW 315 3,2 km/h (1 Bft)
17.05.2020 23:20 9,4 C 80 % 1022,4 hPa 0,0 mm NW 315 3,2 km/h (1 Bft)
17.05.2020 23:25 9,3 C 80 % 1022,4 hPa 0,0 mm NW 315 3,2 km/h (1 Bft)
17.05.2020 23:30 9,3 C 81 % 1022,3 hPa 0,0 mm NW 315 4,8 km/h (1 Bft)
17.05.2020 23:35 9,2 C 81 % 1022,3 hPa 0,0 mm N 0 0,0 km/h (0 Bft)
17.05.2020 23:40 9,1 C 81 % 1022,4 hPa 0,0 mm NW 315 3,2 km/h (1 Bft)
17.05.2020 23:45 9,0 C 81 % 1022,4 hPa 0,0 mm NW 315 3,2 km/h (1 Bft)
17.05.2020 23:50 8,9 C 81 % 1022,4 hPa 0,0 mm N 0 0,0 km/h (0 Bft)
17.05.2020 23:55 8,8 C 81 % 1022,5 hPa 0,0 mm N 0 0,0 km/h (0 Bft)
_ Min-Zeit 23:55 13:25 00:45 - - - 00:20
Minimum _ 8,8 C 35 % 1018,5 hPa - - - 0,0 km/h (0 Bft)
_ Max-Zeit 15:40 05:15 22:55 00:00 - - 15:55
Maximum _ 21,8 C 91 % 1022,5 hPa 0,0 mm - - 19,3 km/h
W (3 Bft)
Durchschnitt _ 15,1 C 66 % 1020,6 hPa #0,0 mm W - 6,2 km/h (2 Bft)